Probability
0 0 0 0 0 0 0 0 0 0 0 0 0 0 0 0 0 0 0 0 1 2 3 6 13 23 31 33 30 23 15 10 8 7 6 4 2 1 0 1 2 2 1
0 0 0 0 0 0 0 0 0 0 0 1 1 0 0 0 0 0 0 0 0 1 2 3 8 15 25 35 36 29 20 15 13 12 10 6 2 1 0 0 1 1 0
0 0 0 0 0 0 0 0 0 0 0 1 1 1 1 0 0 0 0 0 0 0 0 1 2 5 15 29 36 35 31 26 22 18 14 9 4 2 1 0 0 0 0
0 0 0 0 0 0 0 0 0 0 0 1 1 1 1 0 0 0 0 0 0 0 0 0 0 2 7 16 26 36 43 40 32 25 20 15 8 3 1 0 0 0 0
0 0 0 0 0 0 0 0 0 0 0 0 0 1 1 0 0 0 0 0 0 0 0 0 0 1 2 5 14 27 39 41 39 33 28 22 13 5 2 1 0 0 0
0 0 0 0 0 0 0 0 0 0 0 0 0 0 0 0 0 0 0 0 0 0 0 0 0 0 0 1 4 10 18 25 31 34 35 29 20 10 5 2 0 0 0
0 0 0 0 0 0 0 0 0 0 0 1 1 1 1 0 0 0 0 0 0 0 0 0 0 0 0 0 0 0 3 7 14 24 32 34 28 18 11 5 1 0 0
0 0 0 0 0 0 0 0 0 0 0 1 2 2 2 1 0 0 0 0 0 0 0 0 0 0 0 0 0 0 0 1 3 9 19 25 24 19 14 8 3 0 0
0 0 0 0 0 0 0 0 0 0 0 0 1 2 2 1 0 0 0 0 0 0 0 0 0 0 0 0 0 0 0 0 0 2 5 9 9 9 10 7 2 0 0
0 0 0 0 0 0 0 0 0 0 0 0 0 1 1 0 0 0 0 1 0 0 0 0 0 0 0 0 0 0 0 0 0 0 0 0 1 2 3 3 1 0 0
0 0 0 0 0 0 0 0 0 0 0 0 0 0 0 0 0 0 0 0 0 0 0 0 0 0 0 0 0 0 0 1 1 1 1 1 2 2 1 1 1 0 0
0 0 0 0 0 0 0 0 0 0 0 0 0 0 0 0 0 0 0 0 0 0 0 0 0 0 0 0 0 0 0 1 2 1 1 2 3 3 2 1 0 0 0
0 0 0 0 0 0 0 0 0 0 0 0 0 0 0 0 0 0 0 0 0 0 0 0 0 0 0 0 0 0 0 1 2 2 2 3 4 4 2 1 0 0 0
0 0 0 0 0 0 0 0 0 0 0 0 0 0 0 0 0 0 0 0 0 0 0 0 0 0 0 0 0 0 0 0 2 3 3 4 5 4 1 0 0 0 0
0 0 0 0 0 0 0 0 0 0 0 0 0 0 0 0 0 0 0 0 0 0 0 0 0 0 0 0 0 0 0 0 1 2 3 4 4 2 0 0 0 0 0
0 0 0 0 0 0 0 0 0 0 0 0 0 0 0 0 0 0 0 0 0 0 0 0 0 0 0 0 0 0 0 0 1 1 3 4 2 0 0 0 0 0 0
0 0 0 0 0 0 0 0 0 0 0 0 0 0 0 0 0 0 0 0 0 0 0 0 0 0 0 0 0 0 0 1 1 1 3 4 2 1 0 0 0 0 0
0 0 0 0 0 0 0 0 0 0 0 0 0 0 0 0 0 0 0 0 0 0 0 0 0 0 0 0 0 0 0 1 2 2 3 3 2 1 0 0 0 0 0
0 0 0 0 0 0 0 0 0 0 0 0 0 0 0 0 0 0 0 0 0 0 0 0 0 0 0 0 0 0 0 1 1 2 3 3 2 0 0 0 0 0 0
0 0 0 0 0 0 0 0 0 0 0 0 0 0 0 0 0 0 0 0 0 0 0 0 0 0 0 0 0 0 0 0 0 1 2 2 1 0 0 0 0 0 0
0 0 0 0 0 0 0 0 0 0 0 0 0 0 0 0 0 0 0 0 0 0 0 0 0 0 0 0 0 0 0 0 0 1 1 1 1 0 0 0 0 0 0
0 0 0 0 0 0 0 0 0 0 0 0 0 0 0 0 0 0 0 0 0 0 0 0 0 0 0 0 0 0 0 0 0 0 0 0 0 0 0 0 0 0 0
0 0 0 0 0 0 0 0 0 0 0 0 0 0 0 0 0 0 0 0 0 0 0 0 0 0 0 0 0 0 0 0 0 0 0 0 0 0 0 0 0 0 0
0 0 0 0 0 0 0 0 0 0 0 0 0 0 0 0 0 0 0 0 0 0 0 0 0 0 0 0 0 0 0 0 0 0 0 0 0 0 0 0 0 0 0
0 0 0 0 0 0 0 0 0 0 0 0 0 0 0 0 0 0 0 0 0 0 0 0 0 0 0 0 0 0 0 0 0 0 0 0 0 0 0 0 0 0 0
0 0 0 0 0 0 0 0 0 0 0 0 0 0 0 0 0 0 0 0 0 0 0 0 0 0 0 0 0 0 0 0 0 0 0 0 0 0 0 0 0 0 0
Wind_Speed
15 15 15 15 15 15 14 15 14 14 14 14 14 13 13 12 11 10 10 9 9 8 7 9 11 11 8 8 9 8 8 7 6 4 4 5 5 5 6 6 6 6 9
16 16 16 15 16 16 16 15 15 15 14 15 14 14 14 14 13 12 12 11 11 10 9 8 9 8 11 10 8 10 9 8 8 7 6 6 6 7 8 7 6 6 8
16 16 16 17 17 16 16 16 16 15 15 15 15 15 15 15 14 14 13 12 12 11 10 10 9 8 10 9 10 10 9 9 8 7 7 6 6 7 8 7 8 7 8
16 16 17 17 17 17 17 16 16 16 16 15 16 16 16 16 16 15 14 13 12 11 11 10 10 9 8 8 8 9 9 9 9 8 7 7 7 8 7 7 6 5 6
16 17 17 17 17 16 17 16 16 16 17 16 16 16 16 15 15 16 15 15 13 13 12 11 11 11 10 7 6 7 7 8 8 9 8 7 8 9 8 7 8 7 6
16 17 17 17 17 17 17 17 17 16 16 16 16 16 17 15 14 14 14 14 13 13 12 11 11 12 12 12 10 8 7 8 8 8 9 9 10 11 9 9 9 9 5
16 17 17 17 17 17 18 18 17 17 16 16 16 16 16 16 12 12 15 14 14 13 12 11 10 10 12 11 12 12 10 9 8 7 8 9 10 12 13 13 12 10 6
16 16 17 17 18 17 17 17 16 15 14 14 14 14 14 14 13 13 13 15 15 14 13 12 11 10 10 10 10 11 11 10 10 9 9 8 8 10 13 13 11 9 9
16 16 17 17 18 18 17 16 15 13 12 12 12 12 12 12 11 13 13 13 13 14 14 14 13 12 10 9 10 11 11 10 10 10 8 6 4 6 10 11 12 11 8
16 16 17 17 17 17 17 15 13 11 11 10 10 10 11 10 10 12 13 11 12 12 12 13 12 11 9 12 11 11 11 10 9 9 9 7 8 10 15 15 14 13 10
16 16 16 16 16 16 14 12 12 10 10 8 9 7 8 8 10 13 13 10 10 11 10 10 10 14 11 11 10 10 8 8 9 9 9 8 8 9 12 12 12 13 12
16 16 16 15 14 12 13 11 10 9 8 7 6 5 4 6 8 11 13 13 9 9 9 8 7 15 13 11 10 8 5 6 7 8 8 9 9 9 9 10 9 7 5
16 16 15 14 13 12 11 11 9 7 5 4 4 4 4 4 6 9 12 12 10 8 7 2 5 12 11 10 11 9 8 8 8 8 9 9 9 10 9 8 8 8 8
15 15 14 13 12 11 9 8 7 6 5 4 3 2 3 4 5 7 9 9 10 10 8 6 8 8 7 6 8 10 9 9 8 8 8 7 8 10 10 10 10 10 9
15 14 13 12 11 10 8 6 7 6 5 5 4 3 2 2 1 1 3 5 7 8 8 8 9 9 10 9 9 8 8 9 9 8 8 8 9 10 10 11 11 11 9
12 12 10 10 9 8 7 5 1 2 2 3 4 4 2 1 2 1 1 1 0 3 6 8 8 9 9 9 9 9 9 8 8 8 9 9 9 10 10 11 11 11 11
12 12 10 9 9 8 7 7 5 1 3 1 0 1 2 1 1 2 2 3 4 6 8 8 8 8 8 8 8 8 8 8 7 8 9 9 10 11 12 12 12 11 11
13 11 10 9 9 8 7 6 5 5 2 1 3 3 2 3 3 4 6 7 6 7 8 8 8 7 7 7 7 7 6 6 7 7 8 9 10 11 12 13 12 13 13
12 9 9 9 8 8 7 6 5 5 3 2 1 4 4 5 5 6 7 7 6 7 7 7 7 6 6 6 6 6 6 6 7 7 8 9 10 11 12 12 12 15 13
10 12 12 10 8 7 6 6 5 5 4 3 2 1 3 4 4 6 6 6 5 6 6 6 5 5 5 5 5 5 5 6 7 7 7 8 9 10 12 14 13 14 12
10 10 12 9 7 7 6 5 5 4 3 2 2 2 3 3 2 4 5 5 5 5 5 5 4 5 5 5 5 6 7 6 6 7 7 8 9 9 10 11 13 13 12
9 9 8 8 7 6 6 5 5 4 4 2 1 1 2 4 3 3 3 4 4 4 4 4 4 4 4 5 5 5 6 6 7 8 8 9 10 11 11 12 12 12 11
9 9 8 7 6 5 4 4 4 4 4 3 2 1 0 2 2 2 2 2 3 3 3 3 3 3 3 3 4 5 6 7 8 9 10 10 10 10 11 12 13 13 13
9 9 8 8 7 6 5 5 4 4 4 3 2 1 1 0 0 0 1 1 2 2 2 3 4 5 6 5 5 5 5 7 9 9 13 11 11 11 11 12 13 15 13
9 8 8 8 7 6 6 5 5 4 3 3 3 2 2 2 2 2 2 2 3 3 4 4 4 5 7 8 7 7 8 7 7 9 10 10 12 12 13 14 12 13 13
9 9 7 7 7 7 6 6 6 5 4 4 4 4 4 4 4 3 3 3 3 4 4 4 6 7 8 8 10 10 8 7 6 6 8 10 12 12 13 12 15 13 14
Wind_Direction
311 311 307 303 301 297 291 286 283 279 276 271 266 263 258 252 245 239 244 245 246 249 254 257 247 240 233 223 219 218 219 223 225 187 153 144 148 141 126 115 107 101 92
311 308 305 304 301 297 294 293 289 283 276 271 265 259 256 251 245 239 239 241 240 242 241 243 252 247 236 231 222 219 217 214 221 208 174 166 157 148 134 124 110 97 96
311 308 306 304 302 300 297 294 290 285 279 273 266 259 253 250 246 240 237 236 238 239 239 236 237 242 242 232 226 220 215 207 214 212 194 166 149 145 135 123 112 107 102
312 309 306 304 303 301 299 295 290 285 280 272 265 258 252 247 244 240 235 233 233 234 235 235 233 232 238 240 234 228 223 213 204 211 198 175 158 153 149 142 130 124 115
311 307 306 306 304 301 298 295 291 286 280 273 265 258 251 245 239 235 234 231 228 229 227 227 228 226 231 237 244 236 225 218 208 206 201 185 170 165 167 160 141 127 108
309 309 309 307 304 302 300 295 292 287 282 275 267 258 252 246 233 221 229 235 228 226 226 223 220 212 218 222 236 248 246 230 218 211 206 198 186 177 169 159 151 150 142
310 308 309 308 306 304 301 298 294 290 285 277 267 257 250 247 235 211 214 231 231 227 225 222 224 209 198 213 213 220 236 243 243 238 227 214 195 183 172 170 173 171 144
310 311 311 310 308 307 302 298 295 290 284 277 267 258 250 243 223 209 207 225 231 227 223 221 224 223 208 209 213 211 214 218 223 231 239 237 220 190 180 175 159 125 112
312 315 315 312 309 307 304 304 300 294 285 278 268 257 246 237 217 202 202 224 224 225 223 219 219 220 198 194 221 221 214 211 213 227 245 257 251 193 172 158 149 145 138
317 316 312 309 308 308 308 307 304 298 288 282 270 259 245 232 208 195 201 226 222 220 218 218 213 223 187 184 220 227 222 210 200 202 215 223 214 187 172 172 168 164 148
315 311 308 309 309 308 309 308 307 302 294 285 274 260 240 226 198 191 199 226 226 220 217 213 206 185 190 192 221 234 230 218 199 201 201 202 202 191 184 183 180 174 166
313 311 309 311 311 312 312 310 309 303 294 286 277 260 232 214 206 191 196 219 245 232 226 223 193 163 182 195 215 230 223 217 214 203 202 196 192 187 184 180 173 168 159
313 311 311 312 312 313 315 316 313 307 298 289 278 255 227 211 194 186 193 206 220 237 238 223 138 153 176 198 217 217 213 218 215 207 204 198 188 176 165 153 134 116 107
312 312 312 313 314 317 317 318 321 321 318 307 285 260 226 212 199 191 194 196 200 218 227 176 157 168 210 228 194 200 216 220 215 211 203 191 174 163 159 151 145 138 130
312 313 315 315 314 313 317 326 328 337 349 320 319 308 269 223 163 175 227 210 207 205 202 203 205 196 202 208 213 210 208 208 209 210 196 181 170 162 156 153 151 151 149
312 314 315 314 314 313 318 323 252 288 345 317 307 310 315 80 119 167 242 271 202 179 207 210 210 208 208 208 208 205 207 209 205 200 190 179 169 161 155 154 157 161 157
312 312 310 309 310 315 319 322 329 237 184 177 314 297 287 318 183 189 189 182 179 187 217 221 213 211 209 210 211 209 207 201 197 193 186 176 167 161 157 157 161 164 161
314 310 307 306 309 313 316 319 324 330 344 166 152 137 160 179 183 178 168 176 182 209 225 221 217 214 210 210 210 209 204 194 188 187 183 176 167 162 160 161 164 165 162
315 313 314 312 310 313 317 324 332 339 346 346 60 133 150 161 170 181 194 221 207 204 216 219 217 214 207 206 207 204 198 191 183 180 178 169 163 162 161 162 161 163 162
314 310 308 309 314 322 328 337 345 345 349 346 357 42 160 185 181 178 208 227 231 217 213 218 218 215 208 204 198 196 187 180 175 174 172 162 160 162 161 161 161 163 166
316 315 312 309 318 329 335 345 348 347 354 349 360 32 336 267 226 210 215 221 227 224 215 214 209 205 204 200 191 185 178 174 171 169 166 160 158 158 158 159 159 162 164
318 320 322 325 328 334 338 345 344 349 360 7 24 131 232 264 258 242 237 232 226 223 212 208 210 202 193 186 176 171 171 170 166 162 159 157 156 156 158 157 158 160 163
323 325 325 325 326 331 335 359 1 1 3 14 24 31 218 263 270 245 231 231 220 209 198 197 204 192 175 164 164 166 168 167 162 157 153 152 150 153 156 154 156 159 165
331 331 331 332 338 349 4 12 15 13 6 9 21 22 13 25 36 79 135 158 176 172 176 184 178 164 159 157 155 152 151 151 152 152 150 151 152 152 152 153 159 164 167
337 337 337 338 346 356 4 12 16 20 26 18 29 47 66 76 80 88 106 124 137 141 148 154 151 151 153 150 144 134 124 129 143 147 152 154 153 152 153 156 160 163 165
340 340 342 343 346 353 2 9 17 25 36 31 36 45 61 71 74 80 95 103 112 123 133 138 138 139 144 142 129 123 125 130 140 158 158 152 151 154 157 159 160 163 163